User: anonymous   Login
Location: Albany
(35.0000°S, 118.0000°E)
Time: 09:17:27
(UTC-05:00)
Language:

Transit 2A - Orbit

View from above orbital plane
View from above orbital plane
View from above satellite
View from above satellite

Ground track
Ground track

The orbit data is extracted from the following two-line orbital elements,

1 00045U 60007A   15024.53893355  .00000102  00000-0  52145-4 0  3353
2 00045 066.6952 173.6838 0262729 309.1445 111.4677 14.33229883840210
Epoch (UTC): 24 January 2015 12:56:03
Eccentricity: 0.0262729
inclination: 66.6952°
perigee height: 593 km
apogee height: 969 km
right ascension of ascending node: 173.6838°
argument of perigee: 309.1445°
revolutions per day: 14.33229883
mean anomaly at epoch: 111.4677°
orbit number at epoch: 84021

The dashed part of the orbit path shows where the satellite is in the earth's shadow,  

DLR